Flag for Saudi Arabia Weather past 2 weeks in Riyadh, Saudi Arabia

Now
72 °F

Clear.


Feels Like: 76 °F
Forecast: 62 / 85 °F
Wind: 12 mph from Northeast

Location: Riyadh Airport

Current Time: Mar 3, 2015 at 12:25:15 AM

Latest Report: Mar 2, 2015 at 11:00 PM


Visibility: 10 mi

Pressure: 30.07 "Hg

Humidity: 31%

Dew point: 39 °F

Location of RiyadhLocation

Historic Weather in Riyadh — Graph

°F

Riyadh temperature yesterday

Maximum temperature yesterday: 84 °F (at 3:00 PM)
Minimum temperature yesterday: 64 °F (at 5:00 AM)
Average temperature yesterday: 74 °F

Past Weeks' High & Low Weather Summary

 TemperatureHumidityPressure
High90 °F (Feb 17, 2:00 PM)63% (Feb 19, 6:00 AM)30.30 "Hg (Feb 19, 6:00 AM)
Low45 °F (Feb 23, 5:00 AM)11% (Mar 1, 1:00 PM)29.65 "Hg (Feb 20, 3:00 PM)
Average69 °F29%30.02 "Hg
* Reported Midnight between Feb 15 and Feb 16 — Mar 2 11:00 PM, Riyadh, Weather by CustomWeather, © 2015

Note: Actual official high and low records may vary slightly from our data, if they occured in-between our weather recording intervals... More about our weather records

Advertising

Riyadh weather history for previous 24 hours

 ConditionsComfort  
Time TempWeatherWind HumidityBarometerVisibility
11:00 PM
Mon, Mar 2
72 °FClear.12 mph31%30.07 "Hg10 mi
9:00 PM75 °FClear.12 mph22%30.07 "Hg10 mi
8:00 PM77 °FClear.9 mph21%30.04 "Hg10 mi
7:00 PM79 °FClear.6 mph18%29.98 "Hg10 mi
6:00 PM81 °FClear.5 mph17%29.98 "Hg10 mi
5:00 PM82 °FSunny.6 mph16%29.98 "Hg10 mi
4:00 PM84 °FSunny.5 mph15%29.95 "Hg10 mi
3:00 PM84 °FSunny.7 mph15%29.95 "Hg10 mi
2:00 PM82 °FSunny.5 mph16%29.98 "Hg10 mi
1:00 PM81 °FSunny.5 mph17%29.98 "Hg10 mi
12:00 PM77 °FSunny.6 mph19%30.01 "Hg10 mi
10:00 AM72 °FSunny.6 mph23%30.04 "Hg10 mi
9:00 AM70 °FSunny.7 mph23%30.04 "Hg10 mi
8:00 AM66 °FSunny.5 mph26%30.01 "Hg10 mi
7:00 AM64 °FSunny.7 mph28%29.98 "Hg10 mi
6:00 AM64 °FClear.9 mph28%29.95 "Hg10 mi
5:00 AM64 °FClear.7 mph26%29.95 "Hg10 mi
4:00 AM66 °FClear.8 mph24%29.92 "Hg10 mi
1:00 AM73 °FPassing clouds.7 mph22%29.92 "HgN/A
Weather by CustomWeather, © 2015

See weather overviewHow to use our weather pages